This is the latest recevied weather packets stored in our database for station/object N3WMC. If no packets are shown the sender has not sent any weather packets the latest 10 day(s).
| Time | Temp. | Humidity | Pressure | Rain* | Wind** | Luminosity | Snow |
|---|---|---|---|---|---|---|---|
| 1778087299 | 12.22° C | 83% | 1010.8 hPa | 0 mm | - | 258 W/m² | - |
| 1778086994 | 11.67° C | 86% | 1010.9 hPa | 0 mm | - | 297 W/m² | - |
| 1778086694 | 11.67° C | 87% | 1010.9 hPa | 0 mm | - | 191 W/m² | - |
| 1778086390 | 11.67° C | 88% | 1010.8 hPa | 0 mm | - | 109 W/m² | - |
| 1778086082 | 11.67° C | 88% | 1010.5 hPa | 0 mm | - | 104 W/m² | - |
| 1778085779 | 11.67° C | 88% | 1010.4 hPa | 0 mm | - | 106 W/m² | - |
| 1778085476 | 11.67° C | 88% | 1010.6 hPa | 0 mm | - | 103 W/m² | - |
| 1778085171 | 11.67° C | 88% | 1010.6 hPa | 0 mm | - | 189 W/m² | - |
| 1778084867 | 11.67° C | 90% | 1010.4 hPa | 0 mm | - | 364 W/m² | - |
| 1778084565 | 11.11° C | 92% | 1010.4 hPa | 0 mm | - | 156 W/m² | - |
| 1778084262 | 11.11° C | 92% | 1010.5 hPa | 0 mm | - | 71 W/m² | - |
| 1778083958 | 11.11° C | 92% | 1010.2 hPa | 0 mm | - | 68 W/m² | - |
| 1778083651 | 11.11° C | 93% | 1010.1 hPa | 0 mm | - | 217 W/m² | - |
| 1778083347 | 10.56° C | 93% | 1010.3 hPa | 0 mm | - | 95 W/m² | - |
| 1778083046 | 11.11° C | 93% | 1010.3 hPa | 0 mm | - | 90 W/m² | - |
| 1778082742 | 10.56° C | 93% | 1010.1 hPa | 0 mm | - | 80 W/m² | - |
| 1778081609 | 10.56° C | 95% | 1010 hPa | 0 mm | - | 164 W/m² | - |
| 1778081306 | 10.56° C | 96% | 1009.8 hPa | 0 mm | - | 107 W/m² | - |
| 1778081003 | 10.56° C | 96% | 1009.8 hPa | 0 mm | - | 143 W/m² | - |
| 1778080702 | 10.56° C | 96% | 1009.8 hPa | 0 mm | - | 139 W/m² | - |
| 1778080398 | 10.56° C | 96% | 1009.8 hPa | 0 mm | - | 225 W/m² | - |
| 1778080095 | 10° C | 96% | 1009.8 hPa | 0 mm | - | 119 W/m² | - |
| 1778079792 | 10° C | 96% | 1009.6 hPa | 0 mm | - | 123 W/m² | - |
| 1778079489 | 10.56° C | 96% | 1009.4 hPa | 0 mm | - | 105 W/m² | - |
| 1778079185 | 10.56° C | 97% | 1009.4 hPa | 0 mm | - | 69 W/m² | - |
* Rain latest hour (hover to see other rain measurements)
** Current wind speed in m/s (hover to see current wind gust speed)